Content
SEND FEEDBACK

Daily
Averages
Monthly
Summary
United States of America

SOLEDAD, CALIFORNIA


Home > North America > United States > California
Elevation: 200 feet     Latitude: 36 26N     Longitude: 121 19W

WEATHER
 
SELECT A DAY
Number of Records: 199,467;   Date Range: 1/1/95 - 8/12/14
 
SHARE

PRINT THIS DATA

[ ← Previous Day ]
WEATHER ALMANAC - MARCH 28, 2013
[ Next Day → ]
[ °C ]   °F
Weather ElementAverageHighLow
Temperature57.5 °F66.9 °F (12:53 pm)52 °F (11:53 pm)
Dewpoint51.4 °F53.1 °F (1:53 pm)50 °F (5:53 pm)
Humidity80.9 %94 % (4:33 am)57 % (12:53 pm)
Barometer30.08 in30.12 in (8:53 pm)30.03 in (1:20 am)
Wind Speed5.6 mph16.1 mph (1:53 pm)
Weather ElementAverage
Visibility9.5 mi
Wind DirectionSSE (143.6 °)

Weather ElementTotal
Precipitation---
Heating Degree Days5.6 (Base 65)
Growing Degree Days9.5 (Base 50)
Averaged from 33 records on March 28, 2013
WEATHER CONDITIONS BREAKOUT
WIND DIRECTION BREAKOUT
WEATHER BY HOUR - MARCH 28, 2013
[ °C ]   °F
Local TimeTemperatureDewpointHumidityBarometerVisibilityWind DirectionWind SpeedGust SpeedPrecipitationEventsConditions
1:20 AM57.2 °F51.8 °F82 %30.03 in10.0 miCalmOvercast
1:53 AM55.9 °F52.0 °F87 %30.06 in9.0 miCalm0.00 inRainLight Rain
2:20 AM55.4 °F51.8 °F88 %30.03 in9.0 miCalm0.00 inOvercast
2:28 AM55.4 °F51.8 °F88 %30.03 in9.0 miCalm0.00 inOvercast
2:53 AM55.0 °F51.1 °F86 %30.06 in10.0 miEast (100°)3.5 mph0.00 inOvercast
3:25 AM55.4 °F51.8 °F88 %30.03 in10.0 miEast (100°)3.5 mphOvercast
3:53 AM55.0 °F51.1 °F86 %30.05 in10.0 miCalmMostly Cloudy
4:33 AM53.6 °F51.8 °F94 %30.03 in10.0 miCalmOvercast
4:53 AM54.0 °F51.1 °F90 %30.06 in10.0 miSouth (190°)3.5 mphOvercast
5:53 AM55.0 °F51.1 °F86 %30.06 in10.0 miCalmOvercast
6:53 AM54.0 °F51.1 °F90 %30.08 in10.0 miESE (110°)3.5 mphOvercast
7:06 AM53.6 °F51.8 °F94 %30.05 in10.0 miESE (120°)4.6 mphOvercast
7:53 AM55.0 °F51.1 °F86 %30.09 in9.0 miESE (120°)3.5 mphOvercast
8:07 AM55.4 °F51.8 °F88 %30.07 in9.0 miESE (110°)3.5 mphOvercast
8:15 AM55.4 °F51.8 °F88 %30.07 in9.0 miEast (100°)4.6 mphOvercast
8:53 AM55.9 °F51.1 °F84 %30.11 in9.0 miEast (100°)4.6 mphOvercast
9:21 AM55.4 °F51.8 °F88 %30.08 in10.0 miEast (100°)4.6 mphOvercast
9:53 AM57.0 °F51.1 °F81 %30.11 in10.0 miEast (100°)8.1 mphOvercast
10:53 AM60.1 °F51.1 °F72 %30.10 in10.0 miESE (110°)12.7 mphMostly Cloudy
11:12 AM60.8 °F51.8 °F72 %30.07 in10.0 miESE (110°)10.4 mphScattered Clouds
11:53 AM62.1 °F52.0 °F70 %30.10 in10.0 miEast (100°)5.8 mphClear
12:53 PM66.9 °F51.1 °F57 %30.09 in10.0 miESE (110°)6.9 mphClear
1:53 PM66.0 °F53.1 °F63 %30.08 in10.0 miWest (260°)16.1 mphPartly Cloudy
2:53 PM64.9 °F53.1 °F65 %30.08 in9.0 miWest (280°)13.8 mphClear
3:53 PM66.0 °F52.0 °F60 %30.07 in10.0 miWNW (290°)11.5 mphClear
4:53 PM63.0 °F51.1 °F65 %30.07 in10.0 miWest (270°)13.8 mphClear
5:53 PM62.1 °F50.0 °F65 %30.08 in10.0 miWest (280°)11.5 mphMostly Cloudy
6:53 PM59.0 °F50.0 °F72 %30.09 in10.0 miWest (280°)9.2 mphMostly Cloudy
7:53 PM57.0 °F51.1 °F81 %30.11 in10.0 miNW (310°)6.9 mphClear
8:53 PM55.9 °F51.1 °F84 %30.12 in9.0 miNW (320°)6.9 mphClear
9:53 PM55.0 °F51.1 °F86 %30.12 in8.0 miWest (270°)3.5 mphClear
10:53 PM54.0 °F51.1 °F90 %30.12 in6.0 miWSW (250°)4.6 mphClear
11:53 PM52.0 °F50.0 °F93 %30.12 in10.0 miWSW (250°)3.5 mphClear
Hourly data recorded from KSNS, located miles away from Soledad, California







STORIES FROM OUR PARTNERS